Location: Avon Lake
(41.5219°N, 93.5010°W)
Time: 07:15:17
(UTC+00:00)

Tiangong - Pass Details

Date: 29 November 2022
Orbit: 382 x 386 km, 41.5° (Epoch: 05 February)

Event Time Altitude Azimuth Distance (km) Brightness Sun altitude
Rises 01:06:47 0° 234° (SW) 2,245 2.7 -25.9°
Reaches altitude 10° 01:08:56 10° 226° (SW) 1,396 1.3 -26.3°
Enters shadow 01:09:34 15° 220° (SW) 1,160 0.8 -26.4°
